Hot Springs, VA

2:58 AM EDT on May 23, 2017 (GMT -0400)
Ingalls

Weather History for KHSP - August, 2013

Change the Weather History Date:

Tuesday, August 13, 2013

  Actual Average Record
Temperature  
Mean Temperature 66 °F -  
Max Temperature 73 °F 74 °F 86 °F (1999)
Min Temperature 60 °F 59 °F 53 °F (1996)
Cooling Degree Days 2    
Growing Degree Days 16 (Base 50)    
Moisture  
Dew Point 63 °F    
Average Humidity 93    
Maximum Humidity 100    
Minimum Humidity 73    
Precipitation  
Precipitation 0.26 in - - ()
Sea Level Pressure  
Sea Level Pressure 30.04 in    
Wind  
Wind Speed 12 mph (West)    
Max Wind Speed 20 mph    
Max Gust Speed 26 mph    
Visibility 6 miles    
Events Rain , Thunderstorm    
Averages and records for this station are not official NWS values.
T = Trace of Precipitation, MM = Missing Value Source: NWS Daily Summary

Daily Weather History Graph

Daily Weather History Graph

Search for Another Location

Airport or City:

Trip Planner

Search our weather history database for the weather conditions in past years. The results will help you decide how hot, cold, wet, or windy it might be!

Date:

Astronomy

Aug. 13, 2013 Rise Set
Actual Time 6:32 AM EDT 8:14 PM EDT
Civil Twilight 6:04 AM EDT 8:42 PM EDT
Nautical Twilight 5:30 AM EDT 9:16 PM EDT
Astronomical Twilight 4:54 AM EDT 9:52 PM EDT
Moon 1:18 PM EDT (8/13) 11:56 PM EDT (8/13)
Length of Visible Light 14h 37m
Length of Day
13h 41m
Waxing Crescent, 41% of the Moon is Illuminated
Aug 13
Waxing Crescent
Aug 14
First Quarter
Aug 20
Full
Aug 28
Last Quarter
Sep 5
New

Hourly Weather History & Observations

Time (EDT) Temp. Dew Point Humidity Pressure Visibility Wind Dir Wind Speed Gust Speed Precip Events Conditions
12:15 AM 64.4 °F 60.8 °F 88% 30.14 in 7.0 mi WSW 8.1 mph - N/A   Overcast
12:55 AM 66.2 °F 60.8 °F 83% 30.13 in 10.0 mi SW 9.2 mph - N/A   Mostly Cloudy
1:15 AM 66.2 °F 60.8 °F 83% 30.12 in 10.0 mi SW 9.2 mph - N/A   Overcast
1:35 AM 66.2 °F 62.6 °F 88% 30.10 in 7.0 mi SSW 9.2 mph - N/A   Overcast
1:55 AM 66.2 °F 62.6 °F 88% 30.10 in 7.0 mi SW 8.1 mph - N/A   Overcast
2:15 AM 66.2 °F 60.8 °F 83% 30.09 in 7.0 mi SW 11.5 mph - N/A Thunderstorm Overcast
2:35 AM 64.4 °F 60.8 °F 88% 30.08 in 7.0 mi WSW 11.5 mph - N/A   Overcast
2:55 AM 64.4 °F 60.8 °F 88% 30.07 in 10.0 mi WSW 12.7 mph - N/A   Overcast
3:15 AM 64.4 °F 60.8 °F 88% 30.06 in 10.0 mi WSW 13.8 mph - N/A   Mostly Cloudy
3:35 AM 64.4 °F 62.6 °F 94% 30.06 in 10.0 mi WSW 13.8 mph - N/A Rain Light Rain
3:55 AM 64.4 °F 62.6 °F 94% 30.06 in 10.0 mi WSW 18.4 mph - N/A   Overcast
4:15 AM 64.4 °F 64.4 °F 100% 30.04 in 10.0 mi WSW 16.1 mph - N/A Rain Light Rain
4:35 AM 64.4 °F 64.4 °F 100% 30.04 in 5.0 mi WSW 15.0 mph 20.7 mph N/A   Overcast
4:55 AM 64.4 °F 64.4 °F 100% 30.03 in 0.2 mi WSW 15.0 mph 20.7 mph N/A Rain Light Rain
5:15 AM 62.6 °F 62.6 °F 100% 30.03 in 0.5 mi West 16.1 mph 21.9 mph N/A Rain Light Rain
5:35 AM 62.6 °F 62.6 °F 100% 30.02 in 0.2 mi West 18.4 mph 23.0 mph N/A Rain Light Rain
5:55 AM 62.6 °F 62.6 °F 100% 30.01 in 1.2 mi West 19.6 mph 23.0 mph N/A Rain Light Rain
6:15 AM 62.6 °F 62.6 °F 100% 30.02 in 3.0 mi West 19.6 mph 26.5 mph N/A   Overcast
6:35 AM 62.6 °F 62.6 °F 100% 30.02 in 1.0 mi West 17.3 mph 24.2 mph N/A   Overcast
6:55 AM 62.6 °F 62.6 °F 100% 30.02 in 0.8 mi West 16.1 mph 23.0 mph 0.01 in Rain Light Rain
7:15 AM 62.6 °F 62.6 °F 100% 30.03 in 0.2 mi West 13.8 mph 20.7 mph 0.01 in Rain Light Rain
7:35 AM 62.6 °F 62.6 °F 100% 30.03 in 0.2 mi West 16.1 mph 21.9 mph 0.02 in Rain Light Rain
7:55 AM 62.6 °F 62.6 °F 100% 30.03 in 0.2 mi West 15.0 mph 19.6 mph N/A Rain Light Rain
8:15 AM 62.6 °F 62.6 °F 100% 30.04 in 0.2 mi West 15.0 mph 20.7 mph N/A Rain Light Rain
8:35 AM 62.6 °F 62.6 °F 100% 30.04 in 0.2 mi West 12.7 mph - N/A Rain Light Rain
8:55 AM 62.6 °F 62.6 °F 100% 30.04 in 0.2 mi West 15.0 mph 19.6 mph N/A Rain Light Rain
9:15 AM 62.6 °F 62.6 °F 100% 30.04 in 0.2 mi West 15.0 mph - N/A Rain Light Rain
9:35 AM 62.6 °F 62.6 °F 100% 30.04 in 0.2 mi West 12.7 mph - N/A Rain Light Rain
9:55 AM 62.6 °F 62.6 °F 100% 30.04 in 0.2 mi West 15.0 mph 21.9 mph N/A Rain Light Rain
10:15 AM 62.6 °F 62.6 °F 100% 30.04 in 0.2 mi West 11.5 mph - N/A Rain Light Rain
10:35 AM 62.6 °F 62.6 °F 100% 30.05 in 0.2 mi West 10.4 mph - 0.01 in Rain Light Rain
10:55 AM 62.6 °F 62.6 °F 100% 30.04 in 0.2 mi West 10.4 mph - N/A Rain Light Rain
11:15 AM 64.4 °F 64.4 °F 100% 30.04 in 0.2 mi West 11.5 mph - N/A Rain Light Rain
11:35 AM 64.4 °F 64.4 °F 100% 30.04 in 0.2 mi West 12.7 mph - N/A Rain Light Rain
11:55 AM 64.4 °F 64.4 °F 100% 30.04 in 0.2 mi West 11.5 mph - N/A Rain Light Rain
12:15 PM 66.2 °F 66.2 °F 100% 30.04 in 7.0 mi West 10.4 mph - N/A   Overcast
12:35 PM 66.2 °F 66.2 °F 100% 30.03 in 7.0 mi West 15.0 mph 19.6 mph N/A   Overcast
12:55 PM 69.8 °F 66.2 °F 88% 30.04 in 10.0 mi West 12.7 mph 18.4 mph N/A   Mostly Cloudy
1:15 PM 69.8 °F 64.4 °F 83% 30.03 in 10.0 mi West 10.4 mph - N/A   Scattered Clouds
1:35 PM 68.0 °F 64.4 °F 88% 30.03 in 10.0 mi West 10.4 mph - N/A   Overcast
1:55 PM 69.8 °F 66.2 °F 88% 30.03 in 10.0 mi West 11.5 mph - N/A   Mostly Cloudy
2:15 PM 71.6 °F 66.2 °F 83% 30.03 in 10.0 mi West 12.7 mph - N/A   Scattered Clouds
2:35 PM 71.6 °F 64.4 °F 78% 30.02 in 10.0 mi WSW 9.2 mph - N/A   Clear
2:55 PM 71.6 °F 64.4 °F 78% 30.02 in 10.0 mi West 10.4 mph - N/A   Mostly Cloudy
3:15 PM 71.6 °F 64.4 °F 78% 30.02 in 10.0 mi WNW 11.5 mph - N/A   Mostly Cloudy
3:35 PM 71.6 °F 64.4 °F 78% 30.01 in 10.0 mi WNW 9.2 mph - N/A   Scattered Clouds
3:55 PM 73.4 °F 64.4 °F 73% 30.01 in 10.0 mi West 10.4 mph 17.3 mph N/A   Scattered Clouds
4:15 PM 71.6 °F 62.6 °F 73% 30.00 in 10.0 mi West 10.4 mph 16.1 mph N/A   Scattered Clouds
4:55 PM 69.8 °F 62.6 °F 78% 30.00 in 10.0 mi West 10.4 mph 16.1 mph N/A   Mostly Cloudy
5:15 PM 69.8 °F 62.6 °F 78% 30.00 in 10.0 mi West 9.2 mph - N/A   Scattered Clouds
5:35 PM 69.8 °F 62.6 °F 78% 30.01 in 10.0 mi West 10.4 mph 17.3 mph N/A   Scattered Clouds
5:55 PM 68.0 °F 62.6 °F 83% 30.01 in 10.0 mi West 11.5 mph 18.4 mph N/A   Mostly Cloudy
6:15 PM 66.2 °F 62.6 °F 88% 30.01 in 10.0 mi West 10.4 mph - N/A   Scattered Clouds
6:35 PM 66.2 °F 62.6 °F 88% 30.01 in 10.0 mi West 9.2 mph - N/A   Scattered Clouds
6:55 PM 62.6 °F 60.8 °F 94% 30.03 in 4.0 mi NW 12.7 mph - 0.22 in Rain Heavy Rain
8:15 PM 60.8 °F 60.8 °F 100% 30.01 in 7.0 mi WNW 11.5 mph - N/A   Overcast
8:35 PM 60.8 °F 60.8 °F 100% 30.02 in 7.0 mi WNW 9.2 mph 17.3 mph N/A   Overcast
8:55 PM 60.8 °F 60.8 °F 100% 30.02 in 10.0 mi NW 12.7 mph 18.4 mph N/A   Overcast
9:15 PM 60.8 °F 60.8 °F 100% 30.02 in 10.0 mi NW 11.5 mph 18.4 mph N/A   Mostly Cloudy
9:35 PM 60.8 °F 60.8 °F 100% 30.02 in 7.0 mi NW 9.2 mph - N/A   Scattered Clouds
9:55 PM 60.8 °F 60.8 °F 100% 30.03 in 7.0 mi WNW 10.4 mph 16.1 mph N/A   Clear
10:15 PM 60.8 °F 60.8 °F 100% 30.03 in 7.0 mi WNW 9.2 mph - N/A   Clear
10:35 PM 60.8 °F 60.8 °F 100% 30.03 in 10.0 mi NW 10.4 mph 17.3 mph N/A   Scattered Clouds
10:55 PM 60.8 °F 59.0 °F 94% 30.03 in 10.0 mi NW 15.0 mph 18.4 mph N/A   Scattered Clouds
11:15 PM 60.8 °F 59.0 °F 94% 30.03 in 10.0 mi NW 11.5 mph - N/A   Clear
11:35 PM 60.8 °F 57.2 °F 88% 30.04 in 10.0 mi NW 10.4 mph - N/A   Clear
11:55 PM 60.8 °F 59.0 °F 94% 30.04 in 10.0 mi WNW 9.2 mph - N/A   Scattered Clouds